STARLINK-32343, 61712

Orbit data source: Space-Track

STARLINK-32343, 61712 is a payload satellite owned by SpaceX/Seattle (US) in LEO that was launched on Wed, 30 Oct 2024 UTC via an FALCON 9 launch vehicle from the Air Force Eastern Test Range (AFETR). Payloads include a variety of satellites, spacecraft, and rockets equipped with specific instruments for various scientific and technological missions. These include communications satellites like Starlink; space stations such as the ISS; scientific satellites like the Hubble; Earth observation satellites from companies like Planet Labs, Umbra, and HawkEye 360; GPS; miniature CubeSats for education and research; and military/defense satellites.

Loading next visibility...
STARLINK-32343 details
Identifier
61712, 2024-196F
Orbit
LEO
Last TLE update2 days ago
Origin
Flag of USSpaceX/Seattle (US)
ManufacturerSpaceX/Seattle
MissionOperational spacecraft
Bus & MotorSTARLINK V2M, Unknown motor
Mass730 kg wet, ~700 kg dry
Launch date (UTC)
2024-10-30 (1 month ago)
Launch vehicle
FALCON 9
Launch site
Air Force Eastern Test Range (AFETR)
Object type
Payload
Rocket body
Debris
Shape & HBRUnknown
Radar Cross SectionLarge (>1 m²)

Expand to show TLE details & history

TLE from 2 days ago
0 STARLINK-32343
1 61712U 24196F   24335.84218285 -.00007257  00000-0 -12280-3 0  9993
2 61712  53.1619  99.8322 0000495  80.0039 280.1025 15.49254237  5875
Epoch: 2024-11-30T20:12Z
Definitive object data (Epoch: 2024-11-30T20:12:44.598Z)
Latitude-0.00008°
Longitude86.45737°
Altitude419.755 km
Speed7.661 km/s
True Right ascension06h 39m 19s
True Declination0° 00' 00"
Sunlit
Object was in full shadow at TLE epoch
Visualization TLE readout
Latitude-25.60477°
Longitude57.85654°
Altitude426.62 km
Speed7.655 km/s
Apparent Right ascension01h 25m 50s
Apparent Declination-52° 23' 36"
Sunlit
Object is in full shadow
Visualization observer readout
Local Sidereal Time08:33:21
Azimuth229.774° WSW
Elevation-40.109°
Doppler factor1
Orbital elements
Apogee altitude419.501 km
Perigee altitude418.828 km
Semi-major axis6,797.302 km
Eccentricity0.0000495
Inclination53.1619°
RAAN99.8322°
Arg. of periapsis80.0039°
True anomaly280.09692°
Mean anomaly280.1025°
Eccentric anomaly280.09971°
Mean motion3.87292 °/min
BSTAR-0.0001228
Orbital period92.95 mins
Loading maneuver chart data...
Loading historical data...
Loading historical data...
Loading historical data...
Loading historical data...
Loading historical data...
Loading historical data...
Loading historical data...

STARLINK-32343 Visibility forecast

Observer location: undefined°, undefined

Span
Click to sort rows by Start time (UTC) header in descending order
Start Az.
Max El. time (UTC)
Max El. Az.
Max El.
End time (UTC)
End Az.
5 mins2024-12-02 11:06:44.834Z240.082° WSW2024-12-02 11:09:44.834Z6.589° NNE40.443°2024-12-02 11:11:44.834Z42.558° NE
4 mins2024-12-02 17:37:44.834Z311.412° NW2024-12-02 17:39:44.834Z124.617° SE42.762°2024-12-02 17:41:44.834Z129.763° SE
5 mins2024-12-03 10:19:44.834Z216.388° SW2024-12-03 10:21:44.834Z151.335° SSE42.461°2024-12-03 10:24:44.834Z55.746° ENE
|